Time,TemperatureF,DewpointF,PressureIn,WindDirection,WindDirectionDegrees,WindSpeedMPH,WindSpeedGustMPH,Humidity,HourlyPrecipIn,Conditions,Clouds,dailyrainin,SoftwareType,DateUTC
2013-04-10 00:00:00,70.2,30.7,29.21,NW,304,0.0,0.0,23,0.00,,,0.00,VWS V14.01,2013-04-10 04:00:00,
2013-04-10 00:05:00,69.8,30.4,29.21,North,350,0.0,0.0,23,0.00,,,0.00,VWS V14.01,2013-04-10 04:05:00,
2013-04-10 00:10:00,69.4,30.1,29.21,North,350,0.0,0.0,23,0.00,,,0.00,VWS V14.01,2013-04-10 04:10:00,
2013-04-10 00:15:00,69.3,29.9,29.21,NNW,345,0.0,0.0,23,0.00,,,0.00,VWS V14.01,2013-04-10 04:15:00,
2013-04-10 00:20:00,68.9,29.6,29.23,NNE,22,0.0,0.0,23,0.00,,,0.00,VWS V14.01,2013-04-10 04:20:00,
2013-04-10 00:25:00,68.7,30.5,29.23,NNE,24,0.0,0.0,24,0.00,,,0.00,VWS V14.01,2013-04-10 04:25:00,
2013-04-10 00:30:00,68.5,30.4,29.23,NNW,342,0.0,0.0,24,0.00,,,0.00,VWS V14.01,2013-04-10 04:30:00,
2013-04-10 00:35:00,68.4,30.2,29.21,NNE,23,0.0,0.0,24,0.00,,,0.00,VWS V14.01,2013-04-10 04:35:00,
2013-04-10 00:40:00,68.4,30.2,29.21,East,79,0.0,0.0,24,0.00,,,0.00,VWS V14.01,2013-04-10 04:40:00,
2013-04-10 00:45:00,68.5,30.4,29.21,SSW,205,0.0,0.0,24,0.00,,,0.00,VWS V14.01,2013-04-10 04:45:00,
2013-04-10 00:50:00,68.5,30.4,29.21,NNE,28,2.2,3.1,24,0.00,,,0.00,VWS V14.01,2013-04-10 04:50:00,
2013-04-10 00:55:00,68.7,30.5,29.21,WNW,294,0.0,0.0,24,0.00,,,0.00,VWS V14.01,2013-04-10 04:55:00,
2013-04-10 01:00:00,68.9,30.6,29.21,East,89,0.0,2.7,24,0.00,,,0.00,VWS V14.01,2013-04-10 05:00:00,
2013-04-10 01:06:00,69.1,30.8,29.23,ESE,113,3.1,3.1,24,0.00,,,0.00,VWS V14.01,2013-04-10 05:06:00,
2013-04-10 01:11:00,69.1,30.8,29.23,West,275,0.0,0.0,24,0.00,,,0.00,VWS V14.01,2013-04-10 05:11:00,
2013-04-10 01:16:00,69.3,31.0,29.23,SE,133,3.1,4.0,24,0.00,,,0.00,VWS V14.01,2013-04-10 05:16:00,
2013-04-10 01:21:00,69.4,31.1,29.23,NW,306,0.0,0.0,24,0.00,,,0.00,VWS V14.01,2013-04-10 05:21:00,
2013-04-10 01:26:00,69.6,30.2,29.23,NW,315,8.1,8.1,23,0.00,,,0.00,VWS V14.01,2013-04-10 05:26:00,
2013-04-10 01:31:00,69.8,30.4,29.23,West,274,0.0,4.0,23,0.00,,,0.00,VWS V14.01,2013-04-10 05:31:00,
2013-04-10 01:36:00,70.0,30.5,29.23,ESE,111,3.1,3.1,23,0.00,,,0.00,VWS V14.01,2013-04-10 05:36:00,
2013-04-10 01:41:00,70.0,30.5,29.23,South,187,2.7,3.1,23,0.00,,,0.00,VWS V14.01,2013-04-10 05:41:00,
2013-04-10 01:46:00,70.0,30.5,29.23,NNE,27,0.0,3.6,23,0.00,,,0.00,VWS V14.01,2013-04-10 05:46:00,
2013-04-10 01:51:00,70.0,30.5,29.23,North,4,0.0,3.1,23,0.00,,,0.00,VWS V14.01,2013-04-10 05:51:00,
2013-04-10 01:56:00,69.6,30.2,29.23,NNW,342,2.2,5.4,23,0.00,,,0.00,VWS V14.01,2013-04-10 05:56:00,
2013-04-10 02:01:00,69.4,30.1,29.23,NE,36,0.0,0.0,23,0.00,,,0.00,VWS V14.01,2013-04-10 06:01:00,
2013-04-10 02:06:00,69.3,29.9,29.23,ESE,114,0.0,0.0,23,0.00,,,0.00,VWS V14.01,2013-04-10 06:06:00,
2013-04-10 02:11:00,69.1,29.8,29.23,North,357,0.0,2.7,23,0.00,,,0.00,VWS V14.01,2013-04-10 06:11:00,
2013-04-10 02:16:00,68.9,29.6,29.23,North,0,2.7,2.7,23,0.00,,,0.00,VWS V14.01,2013-04-10 06:16:00,
2013-04-10 02:21:00,68.9,29.6,29.23,NW,319,2.7,2.7,23,0.00,,,0.00,VWS V14.01,2013-04-10 06:21:00,
2013-04-10 02:26:00,68.7,29.5,29.23,NNW,332,0.0,3.6,23,0.00,,,0.00,VWS V14.01,2013-04-10 06:26:00,
2013-04-10 02:31:00,68.7,30.5,29.23,East,83,0.0,2.7,24,0.00,,,0.00,VWS V14.01,2013-04-10 06:31:00,
2013-04-10 02:36:00,68.7,30.5,29.21,NW,306,0.0,0.0,24,0.00,,,0.00,VWS V14.01,2013-04-10 06:36:00,
2013-04-10 02:41:00,68.5,30.4,29.21,NNW,344,2.2,3.1,24,0.00,,,0.00,VWS V14.01,2013-04-10 06:41:00,
2013-04-10 02:46:00,68.4,30.2,29.21,North,4,0.0,0.0,24,0.00,,,0.00,VWS V14.01,2013-04-10 06:46:00,
2013-04-10 02:51:00,68.2,30.0,29.21,NNW,332,2.7,4.9,24,0.00,,,0.00,VWS V14.01,2013-04-10 06:51:00,
2013-04-10 02:56:00,68.2,30.0,29.21,WNW,291,0.0,2.2,24,0.00,,,0.00,VWS V14.01,2013-04-10 06:56:00,
2013-04-10 03:01:00,68.0,29.9,29.21,NW,319,0.0,0.0,24,0.00,,,0.00,VWS V14.01,2013-04-10 07:01:00,
2013-04-10 03:06:00,67.8,29.7,29.23,NW,312,0.0,0.0,24,0.00,,,0.00,VWS V14.01,2013-04-10 07:06:00,
2013-04-10 03:11:00,67.6,29.6,29.23,NW,315,0.0,0.0,24,0.00,,,0.00,VWS V14.01,2013-04-10 07:11:00,
2013-04-10 03:17:00,67.5,30.4,29.23,North,350,0.0,0.0,25,0.00,,,0.00,VWS V14.01,2013-04-10 07:17:00,
2013-04-10 03:22:00,67.3,30.3,29.23,WNW,292,0.0,0.0,25,0.00,,,0.00,VWS V14.01,2013-04-10 07:22:00,
2013-04-10 03:27:00,67.3,30.3,29.23,North,357,0.0,0.0,25,0.00,,,0.00,VWS V14.01,2013-04-10 07:27:00,
2013-04-10 03:32:00,67.1,30.1,29.23,NE,48,0.0,0.0,25,0.00,,,0.00,VWS V14.01,2013-04-10 07:32:00,
2013-04-10 03:37:00,67.1,30.1,29.23,NNW,336,0.0,4.0,25,0.00,,,0.00,VWS V14.01,2013-04-10 07:37:00,
2013-04-10 03:42:00,67.1,30.1,29.23,West,274,0.0,0.0,25,0.00,,,0.00,VWS V14.01,2013-04-10 07:42:00,
2013-04-10 03:47:00,66.9,30.0,29.23,NW,304,0.0,0.0,25,0.00,,,0.00,VWS V14.01,2013-04-10 07:47:00,
2013-04-10 03:52:00,66.7,29.8,29.23,NNW,331,0.0,0.0,25,0.00,,,0.00,VWS V14.01,2013-04-10 07:52:00,
2013-04-10 03:57:00,66.7,29.8,29.23,WNW,297,0.0,0.0,25,0.00,,,0.00,VWS V14.01,2013-04-10 07:57:00,
2013-04-10 04:02:00,66.6,30.6,29.23,North,353,0.0,0.0,26,0.00,,,0.00,VWS V14.01,2013-04-10 08:02:00,
2013-04-10 04:07:00,66.6,30.6,29.23,North,5,0.0,0.0,26,0.00,,,0.00,VWS V14.01,2013-04-10 08:07:00,
2013-04-10 04:12:00,66.6,30.6,29.23,WNW,302,0.0,2.7,26,0.00,,,0.00,VWS V14.01,2013-04-10 08:12:00,
2013-04-10 04:17:00,66.6,30.6,29.23,NW,322,0.0,2.7,26,0.00,,,0.00,VWS V14.01,2013-04-10 08:17:00,
2013-04-10 04:22:00,66.6,30.6,29.23,NNW,346,0.0,0.0,26,0.00,,,0.00,VWS V14.01,2013-04-10 08:22:00,
2013-04-10 04:27:00,66.4,30.5,29.23,North,353,0.0,0.0,26,0.00,,,0.00,VWS V14.01,2013-04-10 08:27:00,
2013-04-10 04:32:00,66.4,30.5,29.23,NNE,26,2.2,2.7,26,0.00,,,0.00,VWS V14.01,2013-04-10 08:32:00,
2013-04-10 04:37:00,66.2,30.3,29.23,WSW,255,0.0,0.0,26,0.00,,,0.00,VWS V14.01,2013-04-10 08:37:00,
2013-04-10 04:42:00,66.2,30.3,29.23,WNW,301,0.0,0.0,26,0.00,,,0.00,VWS V14.01,2013-04-10 08:42:00,
2013-04-10 04:47:00,66.0,30.2,29.23,NNW,332,0.0,0.0,26,0.00,,,0.00,VWS V14.01,2013-04-10 08:47:00,
2013-04-10 04:52:00,65.8,30.0,29.23,NNW,339,2.2,3.6,26,0.00,,,0.00,VWS V14.01,2013-04-10 08:52:00,
2013-04-10 04:57:00,65.8,30.0,29.23,North,357,0.0,0.0,26,0.00,,,0.00,VWS V14.01,2013-04-10 08:57:00,
2013-04-10 05:02:00,65.8,30.0,29.23,NNE,19,0.0,0.0,26,0.00,,,0.00,VWS V14.01,2013-04-10 09:02:00,
2013-04-10 05:07:00,65.7,29.9,29.23,ENE,78,0.0,0.0,26,0.00,,,0.00,VWS V14.01,2013-04-10 09:07:00,
2013-04-10 05:12:00,65.7,29.9,29.23,WNW,285,0.0,0.0,26,0.00,,,0.00,VWS V14.01,2013-04-10 09:12:00,
2013-04-10 05:17:00,65.7,29.9,29.23,NW,319,0.0,0.0,26,0.00,,,0.00,VWS V14.01,2013-04-10 09:17:00,
2013-04-10 05:23:00,65.5,29.7,29.23,ESE,110,2.7,4.0,26,0.00,,,0.00,VWS V14.01,2013-04-10 09:23:00,
2013-04-10 05:28:00,65.5,29.7,29.23,East,85,2.2,2.2,26,0.00,,,0.00,VWS V14.01,2013-04-10 09:28:00,
2013-04-10 05:33:00,65.7,29.9,29.26,ENE,58,0.0,2.2,26,0.00,,,0.00,VWS V14.01,2013-04-10 09:33:00,
2013-04-10 05:38:00,65.8,30.0,29.26,NW,322,2.2,4.0,26,0.00,,,0.00,VWS V14.01,2013-04-10 09:38:00,
2013-04-10 05:42:00,66.0,30.2,29.26,North,0,0.0,4.9,26,0.00,,,0.00,VWS V14.01,2013-04-10 09:42:00,
2013-04-10 05:48:00,66.0,30.2,29.26,NW,313,3.6,4.5,26,0.00,,,0.00,VWS V14.01,2013-04-10 09:48:00,
2013-04-10 05:53:00,66.2,29.4,29.26,North,1,0.0,5.4,25,0.00,,,0.00,VWS V14.01,2013-04-10 09:53:00,
2013-04-10 05:58:00,66.2,29.4,29.26,NNW,341,2.2,4.0,25,0.00,,,0.00,VWS V14.01,2013-04-10 09:58:00,
2013-04-10 06:03:00,66.2,29.4,29.26,NNE,17,3.1,3.6,25,0.00,,,0.00,VWS V14.01,2013-04-10 10:03:00,
2013-04-10 06:08:00,66.2,29.4,29.26,SSW,212,2.7,3.6,25,0.00,,,0.00,VWS V14.01,2013-04-10 10:08:00,
2013-04-10 06:13:00,66.2,29.4,29.26,NNW,337,0.0,0.0,25,0.00,,,0.00,VWS V14.01,2013-04-10 10:13:00,
2013-04-10 06:18:00,66.0,29.2,29.26,NW,315,0.0,2.7,25,0.00,,,0.00,VWS V14.01,2013-04-10 10:18:00,
2013-04-10 06:23:00,66.0,29.2,29.26,NW,322,0.0,0.0,25,0.00,,,0.00,VWS V14.01,2013-04-10 10:23:00,
2013-04-10 06:28:00,66.2,29.4,29.26,West,274,0.0,3.6,25,0.00,,,0.00,VWS V14.01,2013-04-10 10:28:00,
2013-04-10 06:33:00,66.4,29.5,29.26,NE,53,3.1,3.1,25,0.00,,,0.00,VWS V14.01,2013-04-10 10:33:00,
2013-04-10 06:38:00,66.6,28.7,29.26,North,357,2.7,3.6,24,0.00,,,0.00,VWS V14.01,2013-04-10 10:38:00,
2013-04-10 06:43:00,66.6,28.7,29.26,West,270,2.2,2.2,24,0.00,,,0.00,VWS V14.01,2013-04-10 10:43:00,
2013-04-10 06:48:00,66.4,28.5,29.26,WSW,251,2.7,2.7,24,0.00,,,0.00,VWS V14.01,2013-04-10 10:48:00,
2013-04-10 06:53:00,66.4,28.5,29.26,NNW,337,0.0,0.0,24,0.00,,,0.00,VWS V14.01,2013-04-10 10:53:00,
2013-04-10 06:58:00,66.2,28.4,29.26,WNW,297,0.0,0.0,24,0.00,,,0.00,VWS V14.01,2013-04-10 10:58:00,
2013-04-10 07:03:00,66.2,28.4,29.26,North,353,0.0,0.0,24,0.00,,,0.00,VWS V14.01,2013-04-10 11:03:00,
2013-04-10 07:08:00,66.0,29.2,29.26,North,349,0.0,0.0,25,0.00,,,0.00,VWS V14.01,2013-04-10 11:08:00,
2013-04-10 07:13:00,65.8,29.1,29.26,North,349,0.0,0.0,25,0.00,,,0.00,VWS V14.01,2013-04-10 11:13:00,
2013-04-10 07:18:00,65.7,28.9,29.26,ESE,105,0.0,0.0,25,0.00,,,0.00,VWS V14.01,2013-04-10 11:18:00,
2013-04-10 07:23:00,65.7,28.9,29.26,ESE,105,0.0,0.0,25,0.00,,,0.00,VWS V14.01,2013-04-10 11:23:00,
2013-04-10 07:28:00,65.7,28.9,29.26,ESE,105,0.0,0.0,25,0.00,,,0.00,VWS V14.01,2013-04-10 11:28:00,
2013-04-10 07:33:00,65.7,29.9,29.26,East,96,0.0,0.0,26,0.00,,,0.00,VWS V14.01,2013-04-10 11:33:00,
2013-04-10 07:38:00,65.7,29.9,29.26,East,99,0.0,0.0,26,0.00,,,0.00,VWS V14.01,2013-04-10 11:38:00,
2013-04-10 07:43:00,65.8,30.0,29.26,ESE,103,0.0,0.0,26,0.00,,,0.00,VWS V14.01,2013-04-10 11:43:00,
2013-04-10 07:48:00,65.8,30.0,29.26,East,83,0.0,0.0,26,0.00,,,0.00,VWS V14.01,2013-04-10 11:48:00,
2013-04-10 07:53:00,66.0,31.1,29.26,ESE,112,0.0,0.0,27,0.00,,,0.00,VWS V14.01,2013-04-10 11:53:00,
2013-04-10 07:58:00,66.2,31.3,29.26,East,94,0.0,0.0,27,0.00,,,0.00,VWS V14.01,2013-04-10 11:58:00,
2013-04-10 08:03:00,66.4,31.4,29.26,ESE,113,0.0,0.0,27,0.00,,,0.00,VWS V14.01,2013-04-10 12:03:00,
2013-04-10 08:08:00,66.7,31.7,29.26,East,98,0.0,0.0,27,0.00,,,0.00,VWS V14.01,2013-04-10 12:08:00,
2013-04-10 08:13:00,67.1,32.0,29.26,East,95,0.0,0.0,27,0.00,,,0.00,VWS V14.01,2013-04-10 12:13:00,
2013-04-10 08:18:00,67.5,32.3,29.26,NNW,336,0.0,0.0,27,0.00,,,0.00,VWS V14.01,2013-04-10 12:18:00,
2013-04-10 08:23:00,68.0,32.8,29.26,WNW,282,0.0,0.0,27,0.00,,,0.00,VWS V14.01,2013-04-10 12:23:00,
2013-04-10 08:28:00,68.5,33.3,29.26,SW,233,0.0,0.0,27,0.00,,,0.00,VWS V14.01,2013-04-10 12:28:00,
2013-04-10 08:33:00,69.3,33.9,29.26,NW,304,0.0,0.0,27,0.00,,,0.00,VWS V14.01,2013-04-10 12:33:00,
2013-04-10 08:38:00,70.2,33.7,29.26,NNW,344,0.0,2.7,26,0.00,,,0.00,VWS V14.01,2013-04-10 12:38:00,
2013-04-10 08:43:00,71.1,33.5,29.26,East,97,0.0,0.0,25,0.00,,,0.00,VWS V14.01,2013-04-10 12:43:00,
2013-04-10 08:48:00,71.8,33.1,29.26,ESE,113,2.2,3.1,24,0.00,,,0.00,VWS V14.01,2013-04-10 12:48:00,
2013-04-10 08:53:00,72.5,32.6,29.26,NNE,28,0.0,0.0,23,0.00,,,0.00,VWS V14.01,2013-04-10 12:53:00,
2013-04-10 08:58:00,73.0,33.1,29.26,North,353,0.0,3.6,23,0.00,,,0.00,VWS V14.01,2013-04-10 12:58:00,
2013-04-10 09:03:00,73.8,33.7,29.26,North,357,3.6,7.2,23,0.00,,,0.00,VWS V14.01,2013-04-10 13:03:00,
2013-04-10 09:08:00,74.1,32.9,29.26,NNW,337,3.1,7.2,22,0.00,,,0.00,VWS V14.01,2013-04-10 13:08:00,
2013-04-10 09:13:00,74.5,33.2,29.26,WNW,300,2.7,3.6,22,0.00,,,0.00,VWS V14.01,2013-04-10 13:13:00,
2013-04-10 09:18:00,75.0,33.6,29.26,NW,319,2.7,4.0,22,0.00,,,0.00,VWS V14.01,2013-04-10 13:18:00,
2013-04-10 09:23:00,75.6,34.1,29.26,West,281,4.0,4.0,22,0.00,,,0.00,VWS V14.01,2013-04-10 13:23:00,
2013-04-10 09:28:00,75.9,34.4,29.26,NW,325,2.7,3.1,22,0.00,,,0.00,VWS V14.01,2013-04-10 13:28:00,
2013-04-10 09:33:00,76.3,34.7,29.26,ENE,77,2.2,2.2,22,0.00,,,0.00,VWS V14.01,2013-04-10 13:33:00,
2013-04-10 09:38:00,76.6,35.0,29.26,North,0,0.0,0.0,22,0.00,,,0.00,VWS V14.01,2013-04-10 13:38:00,
2013-04-10 09:43:00,77.2,34.3,29.26,North,0,3.6,3.6,21,0.00,,,0.00,VWS V14.01,2013-04-10 13:43:00,
2013-04-10 09:48:00,77.5,34.6,29.26,SW,232,3.1,3.1,21,0.00,,,0.00,VWS V14.01,2013-04-10 13:48:00,
2013-04-10 09:53:00,77.5,34.6,29.26,ENE,68,3.1,3.6,21,0.00,,,0.00,VWS V14.01,2013-04-10 13:53:00,
2013-04-10 09:58:00,77.9,34.9,29.26,NNE,31,4.0,4.0,21,0.00,,,0.00,VWS V14.01,2013-04-10 13:58:00,
2013-04-10 10:03:00,78.1,35.0,29.26,East,101,3.6,4.0,21,0.00,,,0.00,VWS V14.01,2013-04-10 14:03:00,
2013-04-10 10:08:00,78.4,35.3,29.26,East,90,4.0,5.4,21,0.00,,,0.00,VWS V14.01,2013-04-10 14:08:00,
2013-04-10 10:13:00,79.2,35.9,29.26,ENE,68,0.0,0.0,21,0.00,,,0.00,VWS V14.01,2013-04-10 14:13:00,
2013-04-10 10:18:00,80.1,36.7,29.26,East,85,3.1,4.0,21,0.00,,,0.00,VWS V14.01,2013-04-10 14:18:00,
2013-04-10 10:23:00,80.8,36.0,29.26,South,169,4.0,4.0,20,0.00,,,0.00,VWS V14.01,2013-04-10 14:23:00,
2013-04-10 10:28:00,81.0,36.2,29.26,NNW,341,0.0,0.0,20,0.00,,,0.00,VWS V14.01,2013-04-10 14:28:00,
2013-04-10 10:33:00,81.3,36.5,29.26,East,98,0.0,3.6,20,0.00,,,0.00,VWS V14.01,2013-04-10 14:33:00,
2013-04-10 10:38:00,81.7,36.8,29.26,ESE,106,3.6,3.6,20,0.00,,,0.00,VWS V14.01,2013-04-10 14:38:00,
2013-04-10 10:43:00,82.0,37.0,29.26,ESE,115,6.3,6.3,20,0.00,,,0.00,VWS V14.01,2013-04-10 14:43:00,
2013-04-10 10:48:00,82.4,36.0,29.26,WNW,292,0.0,4.0,19,0.00,,,0.00,VWS V14.01,2013-04-10 14:48:00,
2013-04-10 10:53:00,82.9,36.5,29.26,NNW,340,4.0,6.3,19,0.00,,,0.00,VWS V14.01,2013-04-10 14:53:00,
2013-04-10 10:58:00,83.5,36.9,29.26,East,87,3.1,4.0,19,0.00,,,0.00,VWS V14.01,2013-04-10 14:58:00,
2013-04-10 11:03:00,83.7,37.1,29.26,NNW,341,7.6,7.6,19,0.00,,,0.00,VWS V14.01,2013-04-10 15:03:00,
2013-04-10 11:08:00,84.0,37.4,29.26,South,171,4.0,4.0,19,0.00,,,0.00,VWS V14.01,2013-04-10 15:08:00,
2013-04-10 11:13:00,83.8,37.2,29.26,WNW,300,11.0,11.0,19,0.00,,,0.00,VWS V14.01,2013-04-10 15:13:00,
2013-04-10 11:18:00,83.8,37.2,29.26,NNW,329,2.7,8.7,19,0.00,,,0.00,VWS V14.01,2013-04-10 15:18:00,
2013-04-10 11:23:00,84.6,37.8,29.26,North,0,8.3,8.7,19,0.00,,,0.00,VWS V14.01,2013-04-10 15:23:00,
2013-04-10 11:28:00,85.1,36.9,29.26,NNW,332,3.1,8.1,18,0.00,,,0.00,VWS V14.01,2013-04-10 15:28:00,
2013-04-10 11:33:00,85.1,36.9,29.23,NW,318,3.1,5.8,18,0.00,,,0.00,VWS V14.01,2013-04-10 15:33:00,
2013-04-10 11:38:00,85.6,37.3,29.23,NNW,332,3.6,4.0,18,0.00,,,0.00,VWS V14.01,2013-04-10 15:38:00,
2013-04-10 11:44:00,86.0,37.6,29.23,WSW,246,7.6,7.6,18,0.00,,,0.00,VWS V14.01,2013-04-10 15:44:00,
2013-04-10 11:49:00,86.2,37.8,29.23,NNW,339,2.7,5.4,18,0.00,,,0.00,VWS V14.01,2013-04-10 15:49:00,
2013-04-10 11:54:00,86.7,38.2,29.23,WNW,299,2.7,6.3,18,0.00,,,0.00,VWS V14.01,2013-04-10 15:54:00,
2013-04-10 11:59:00,87.1,38.5,29.23,WNW,295,3.6,4.9,18,0.00,,,0.00,VWS V14.01,2013-04-10 15:59:00,
2013-04-10 12:04:00,86.9,38.3,29.23,WNW,294,6.3,6.3,18,0.00,,,0.00,VWS V14.01,2013-04-10 16:04:00,
2013-04-10 12:09:00,86.7,38.2,29.23,SE,127,6.7,6.7,18,0.00,,,0.00,VWS V14.01,2013-04-10 16:09:00,
2013-04-10 12:14:00,86.7,35.2,29.23,ENE,65,3.1,5.4,16,0.00,,,0.00,VWS V14.01,2013-04-10 16:14:00,
2013-04-10 12:19:00,86.4,37.9,29.23,NE,36,0.0,3.6,18,0.00,,,0.00,VWS V14.01,2013-04-10 16:19:00,
2013-04-10 12:24:00,86.7,38.2,29.23,North,4,2.2,6.7,18,0.00,,,0.00,VWS V14.01,2013-04-10 16:24:00,
2013-04-10 12:29:00,86.4,37.9,29.23,NE,54,3.6,4.0,18,0.00,,,0.00,VWS V14.01,2013-04-10 16:29:00,
2013-04-10 12:34:00,86.0,34.6,29.23,North,353,3.1,7.2,16,0.00,,,0.00,VWS V14.01,2013-04-10 16:34:00,
2013-04-10 12:39:00,85.8,34.5,29.23,North,4,8.1,10.1,16,0.00,,,0.00,VWS V14.01,2013-04-10 16:39:00,
2013-04-10 12:44:00,85.8,34.5,29.23,North,353,6.3,6.3,16,0.00,,,0.00,VWS V14.01,2013-04-10 16:44:00,
2013-04-10 12:49:00,85.8,34.5,29.21,WNW,303,4.9,8.3,16,0.00,,,0.00,VWS V14.01,2013-04-10 16:49:00,
2013-04-10 12:54:00,86.0,34.6,29.21,NNW,338,3.1,7.6,16,0.00,,,0.00,VWS V14.01,2013-04-10 16:54:00,
2013-04-10 12:59:00,86.4,34.9,29.21,NE,49,2.2,2.2,16,0.00,,,0.00,VWS V14.01,2013-04-10 16:59:00,
2013-04-10 13:04:00,86.5,35.1,29.21,NW,312,7.6,7.6,16,0.00,,,0.00,VWS V14.01,2013-04-10 17:04:00,
2013-04-10 13:09:00,86.4,34.9,29.21,North,353,4.9,5.4,16,0.00,,,0.00,VWS V14.01,2013-04-10 17:09:00,
2013-04-10 13:14:00,86.7,35.2,29.21,NW,320,8.3,9.2,16,0.00,,,0.00,VWS V14.01,2013-04-10 17:14:00,
2013-04-10 13:19:00,86.9,35.3,29.21,NNW,341,5.8,5.8,16,0.00,,,0.00,VWS V14.01,2013-04-10 17:19:00,
2013-04-10 13:24:00,86.7,35.2,29.21,SSW,210,2.2,4.9,16,0.00,,,0.00,VWS V14.01,2013-04-10 17:24:00,
2013-04-10 13:29:00,86.5,35.1,29.21,ENE,62,4.0,4.0,16,0.00,,,0.00,VWS V14.01,2013-04-10 17:29:00,
2013-04-10 13:34:00,87.1,35.5,29.21,NNW,348,3.1,3.1,16,0.00,,,0.00,VWS V14.01,2013-04-10 17:34:00,
2013-04-10 13:39:00,87.1,35.5,29.21,North,8,6.3,6.3,16,0.00,,,0.00,VWS V14.01,2013-04-10 17:39:00,
2013-04-10 13:44:00,87.4,35.8,29.21,NE,42,2.7,3.1,16,0.00,,,0.00,VWS V14.01,2013-04-10 17:44:00,
2013-04-10 13:49:00,87.4,35.8,29.21,NNE,12,7.2,7.2,16,0.00,,,0.00,VWS V14.01,2013-04-10 17:49:00,
2013-04-10 13:54:00,87.4,35.8,29.21,NW,326,4.0,4.0,16,0.00,,,0.00,VWS V14.01,2013-04-10 17:54:00,
2013-04-10 13:59:00,87.6,35.9,29.21,NW,316,2.2,6.3,16,0.00,,,0.00,VWS V14.01,2013-04-10 17:59:00,
2013-04-10 14:04:00,87.8,34.5,29.21,WNW,295,0.0,2.2,15,0.00,,,0.00,VWS V14.01,2013-04-10 18:04:00,
2013-04-10 14:09:00,88.0,34.6,29.21,WSW,253,4.0,4.9,15,0.00,,,0.00,VWS V14.01,2013-04-10 18:09:00,
2013-04-10 14:14:00,88.2,31.2,29.21,NNW,328,4.0,5.4,13,0.00,,,0.00,VWS V14.01,2013-04-10 18:14:00,
2013-04-10 14:19:00,88.2,31.2,29.21,North,353,0.0,4.0,13,0.00,,,0.00,VWS V14.01,2013-04-10 18:19:00,
2013-04-10 14:24:00,88.5,35.0,29.21,WNW,291,5.8,6.3,15,0.00,,,0.00,VWS V14.01,2013-04-10 18:24:00,
2013-04-10 14:29:00,88.5,31.5,29.21,NW,318,7.6,7.6,13,0.00,,,0.00,VWS V14.01,2013-04-10 18:29:00,
2013-04-10 14:34:00,88.3,31.3,29.18,North,353,4.9,4.9,13,0.00,,,0.00,VWS V14.01,2013-04-10 18:34:00,
2013-04-10 14:39:00,87.4,30.6,29.18,NNW,340,0.0,2.2,13,0.00,,,0.00,VWS V14.01,2013-04-10 18:39:00,
2013-04-10 14:44:00,87.8,30.9,29.18,North,353,8.1,8.1,13,0.00,,,0.00,VWS V14.01,2013-04-10 18:44:00,
2013-04-10 14:49:00,88.0,31.0,29.18,NW,325,4.5,4.5,13,0.00,,,0.00,VWS V14.01,2013-04-10 18:49:00,
2013-04-10 14:54:00,88.2,31.2,29.18,NW,317,7.6,7.6,13,0.00,,,0.00,VWS V14.01,2013-04-10 18:54:00,
2013-04-10 14:59:00,88.3,31.3,29.18,North,357,3.6,4.9,13,0.00,,,0.00,VWS V14.01,2013-04-10 18:59:00,
2013-04-10 15:04:00,87.8,30.9,29.18,East,92,2.7,3.1,13,0.00,,,0.00,VWS V14.01,2013-04-10 19:04:00,
2013-04-10 15:09:00,87.6,30.8,29.18,SE,127,3.1,3.6,13,0.00,,,0.00,VWS V14.01,2013-04-10 19:09:00,
2013-04-10 15:14:00,88.2,31.2,29.18,NNE,33,0.0,6.3,13,0.00,,,0.00,VWS V14.01,2013-04-10 19:14:00,
2013-04-10 15:19:00,88.3,31.3,29.18,SE,133,0.0,2.2,13,0.00,,,0.00,VWS V14.01,2013-04-10 19:19:00,
2013-04-10 15:24:00,88.2,31.2,29.18,East,84,0.0,2.2,13,0.00,,,0.00,VWS V14.01,2013-04-10 19:24:00,
2013-04-10 15:29:00,88.0,31.0,29.18,SW,216,2.7,5.4,13,0.00,,,0.00,VWS V14.01,2013-04-10 19:29:00,
2013-04-10 15:34:00,87.6,30.8,29.15,East,98,6.3,6.3,13,0.00,,,0.00,VWS V14.01,2013-04-10 19:34:00,
2013-04-10 15:39:00,87.4,30.6,29.15,East,85,3.6,3.6,13,0.00,,,0.00,VWS V14.01,2013-04-10 19:39:00,
2013-04-10 15:44:00,87.3,30.5,29.15,ESE,115,4.9,4.9,13,0.00,,,0.00,VWS V14.01,2013-04-10 19:44:00,
2013-04-10 15:49:00,87.6,30.8,29.15,NNW,336,2.7,2.7,13,0.00,,,0.00,VWS V14.01,2013-04-10 19:49:00,
2013-04-10 15:55:00,88.0,31.0,29.15,ESE,108,2.7,4.0,13,0.00,,,0.00,VWS V14.01,2013-04-10 19:55:00,
2013-04-10 16:00:00,88.3,31.3,29.15,NE,51,2.2,5.4,13,0.00,,,0.00,VWS V14.01,2013-04-10 20:00:00,
2013-04-10 16:05:00,88.5,31.5,29.15,SE,145,0.0,4.9,13,0.00,,,0.00,VWS V14.01,2013-04-10 20:05:00,
2013-04-10 16:10:00,88.5,31.5,29.15,SSW,212,0.0,3.1,13,0.00,,,0.00,VWS V14.01,2013-04-10 20:10:00,
2013-04-10 16:15:00,88.7,31.6,29.15,SE,131,2.7,6.3,13,0.00,,,0.00,VWS V14.01,2013-04-10 20:15:00,
2013-04-10 16:20:00,88.7,31.6,29.15,North,11,5.8,5.8,13,0.00,,,0.00,VWS V14.01,2013-04-10 20:20:00,
2013-04-10 16:25:00,88.7,31.6,29.15,ENE,68,2.7,4.9,13,0.00,,,0.00,VWS V14.01,2013-04-10 20:25:00,
2013-04-10 16:30:00,88.7,31.6,29.15,NE,41,4.0,4.0,13,0.00,,,0.00,VWS V14.01,2013-04-10 20:30:00,
2013-04-10 16:35:00,88.7,31.6,29.15,NNW,344,2.7,3.1,13,0.00,,,0.00,VWS V14.01,2013-04-10 20:35:00,
2013-04-10 16:40:00,88.3,31.3,29.15,North,350,2.7,5.4,13,0.00,,,0.00,VWS V14.01,2013-04-10 20:40:00,
2013-04-10 16:45:00,88.3,31.3,29.15,NNW,334,4.0,4.0,13,0.00,,,0.00,VWS V14.01,2013-04-10 20:45:00,
2013-04-10 16:50:00,88.2,31.2,29.15,NNW,333,0.0,3.6,13,0.00,,,0.00,VWS V14.01,2013-04-10 20:50:00,
2013-04-10 16:55:00,87.8,30.9,29.15,ESE,105,0.0,0.0,13,0.00,,,0.00,VWS V14.01,2013-04-10 20:55:00,
2013-04-10 17:00:00,87.4,30.6,29.15,NNW,341,0.0,0.0,13,0.00,,,0.00,VWS V14.01,2013-04-10 21:00:00,
2013-04-10 17:05:00,87.1,30.3,29.12,East,94,0.0,0.0,13,0.00,,,0.00,VWS V14.01,2013-04-10 21:05:00,
2013-04-10 17:10:00,86.9,30.2,29.12,West,273,0.0,0.0,13,0.00,,,0.00,VWS V14.01,2013-04-10 21:10:00,
2013-04-10 17:15:00,86.7,30.0,29.12,WNW,302,0.0,0.0,13,0.00,,,0.00,VWS V14.01,2013-04-10 21:15:00,
2013-04-10 17:20:00,86.7,30.0,29.12,NE,51,0.0,0.0,13,0.00,,,0.00,VWS V14.01,2013-04-10 21:20:00,
2013-04-10 17:25:00,86.5,29.9,29.12,East,99,0.0,0.0,13,0.00,,,0.00,VWS V14.01,2013-04-10 21:25:00,
2013-04-10 17:30:00,86.4,29.8,29.12,East,90,2.7,2.7,13,0.00,,,0.00,VWS V14.01,2013-04-10 21:30:00,
2013-04-10 17:35:00,86.4,29.8,29.12,East,88,0.0,0.0,13,0.00,,,0.00,VWS V14.01,2013-04-10 21:35:00,
2013-04-10 17:40:00,86.4,29.8,29.12,East,90,0.0,3.6,13,0.00,,,0.00,VWS V14.01,2013-04-10 21:40:00,
2013-04-10 17:45:00,86.2,29.6,29.12,East,100,0.0,0.0,13,0.00,,,0.00,VWS V14.01,2013-04-10 21:45:00,
2013-04-10 17:50:00,86.0,29.5,29.12,East,100,0.0,0.0,13,0.00,,,0.00,VWS V14.01,2013-04-10 21:50:00,
2013-04-10 17:55:00,85.6,29.2,29.12,East,100,0.0,0.0,13,0.00,,,0.00,VWS V14.01,2013-04-10 21:55:00,
2013-04-10 18:00:00,85.6,29.2,29.12,East,100,0.0,0.0,13,0.00,,,0.00,VWS V14.01,2013-04-10 22:00:00,
2013-04-10 18:05:00,85.6,29.2,29.12,ESE,106,0.0,0.0,13,0.00,,,0.00,VWS V14.01,2013-04-10 22:05:00,
2013-04-10 18:10:00,85.6,29.2,29.12,East,87,0.0,0.0,13,0.00,,,0.00,VWS V14.01,2013-04-10 22:10:00,
2013-04-10 18:15:00,85.6,29.2,29.12,East,87,0.0,0.0,13,0.00,,,0.00,VWS V14.01,2013-04-10 22:15:00,
2013-04-10 18:20:00,85.6,34.3,29.09,ESE,106,0.0,0.0,16,0.00,,,0.00,VWS V14.01,2013-04-10 22:20:00,
2013-04-10 18:25:00,85.6,34.3,29.09,East,100,0.0,2.7,16,0.00,,,0.00,VWS V14.01,2013-04-10 22:25:00,
2013-04-10 18:30:00,85.6,34.3,29.09,NNE,33,0.0,0.0,16,0.00,,,0.00,VWS V14.01,2013-04-10 22:30:00,
2013-04-10 18:35:00,85.5,34.2,29.09,ESE,121,0.0,0.0,16,0.00,,,0.00,VWS V14.01,2013-04-10 22:35:00,
2013-04-10 18:40:00,85.5,34.2,29.09,WSW,243,2.7,2.7,16,0.00,,,0.00,VWS V14.01,2013-04-10 22:40:00,
2013-04-10 18:45:00,85.3,28.9,29.09,ENE,77,5.4,5.4,13,0.00,,,0.00,VWS V14.01,2013-04-10 22:45:00,
2013-04-10 18:50:00,84.9,28.6,29.09,NNE,25,0.0,0.0,13,0.00,,,0.00,VWS V14.01,2013-04-10 22:50:00,
2013-04-10 18:55:00,84.6,28.4,29.09,ENE,78,3.1,3.1,13,0.00,,,0.00,VWS V14.01,2013-04-10 22:55:00,
2013-04-10 19:00:00,84.0,29.8,29.09,WNW,303,0.0,0.0,14,0.00,,,0.00,VWS V14.01,2013-04-10 23:00:00,
2013-04-10 19:05:00,83.8,29.6,29.09,WNW,293,0.0,0.0,14,0.00,,,0.00,VWS V14.01,2013-04-10 23:05:00,
2013-04-10 19:10:00,83.7,29.5,29.09,North,353,0.0,0.0,14,0.00,,,0.00,VWS V14.01,2013-04-10 23:10:00,
2013-04-10 19:15:00,83.1,29.0,29.09,NW,324,2.2,2.2,14,0.00,,,0.00,VWS V14.01,2013-04-10 23:15:00,
2013-04-10 19:20:00,82.8,28.8,29.09,West,270,0.0,0.0,14,0.00,,,0.00,VWS V14.01,2013-04-10 23:20:00,
2013-04-10 19:25:00,82.2,28.3,29.09,West,278,0.0,0.0,14,0.00,,,0.00,VWS V14.01,2013-04-10 23:25:00,
2013-04-10 19:30:00,81.7,27.9,29.09,West,278,0.0,0.0,14,0.00,,,0.00,VWS V14.01,2013-04-10 23:30:00,
2013-04-10 19:35:00,81.1,27.5,29.09,West,278,0.0,0.0,14,0.00,,,0.00,VWS V14.01,2013-04-10 23:35:00,
2013-04-10 19:40:00,81.0,27.3,29.09,ESE,106,0.0,0.0,14,0.00,,,0.00,VWS V14.01,2013-04-10 23:40:00,
2013-04-10 19:45:00,80.6,27.0,29.09,North,353,0.0,0.0,14,0.00,,,0.00,VWS V14.01,2013-04-10 23:45:00,
2013-04-10 19:50:00,80.6,27.0,29.09,NW,312,0.0,0.0,14,0.00,,,0.00,VWS V14.01,2013-04-10 23:50:00,
2013-04-10 19:55:00,80.2,28.4,29.09,NW,313,0.0,0.0,15,0.00,,,0.00,VWS V14.01,2013-04-10 23:55:00,
2013-04-10 20:00:00,80.2,28.4,29.09,NNE,30,0.0,0.0,15,0.00,,,0.00,VWS V14.01,2013-04-11 00:00:00,
2013-04-10 20:05:00,79.9,28.1,29.09,NNE,30,0.0,0.0,15,0.00,,,0.00,VWS V14.01,2013-04-11 00:05:00,
2013-04-10 20:10:00,79.5,27.9,29.09,NNE,30,0.0,0.0,15,0.00,,,0.00,VWS V14.01,2013-04-11 00:10:00,
2013-04-10 20:15:00,79.3,27.7,29.09,NNE,30,0.0,0.0,15,0.00,,,0.00,VWS V14.01,2013-04-11 00:15:00,
2013-04-10 20:20:00,79.0,27.4,29.09,North,357,0.0,0.0,15,0.00,,,0.00,VWS V14.01,2013-04-11 00:20:00,
2013-04-10 20:25:00,78.8,27.3,29.09,North,357,0.0,0.0,15,0.00,,,0.00,VWS V14.01,2013-04-11 00:25:00,
2013-04-10 20:30:00,78.6,27.1,29.09,NNW,327,0.0,0.0,15,0.00,,,0.00,VWS V14.01,2013-04-11 00:30:00,
2013-04-10 20:35:00,78.6,31.6,29.09,NNW,339,0.0,0.0,18,0.00,,,0.00,VWS V14.01,2013-04-11 00:35:00,
2013-04-10 20:40:00,78.6,31.6,29.09,NNW,339,0.0,0.0,18,0.00,,,0.00,VWS V14.01,2013-04-11 00:40:00,
2013-04-10 20:45:00,78.3,31.3,29.09,NNW,339,0.0,0.0,18,0.00,,,0.00,VWS V14.01,2013-04-11 00:45:00,
2013-04-10 20:50:00,77.9,31.0,29.09,NNW,339,0.0,0.0,18,0.00,,,0.00,VWS V14.01,2013-04-11 00:50:00,
2013-04-10 20:55:00,77.7,30.9,29.09,NNW,341,0.0,0.0,18,0.00,,,0.00,VWS V14.01,2013-04-11 00:55:00,
2013-04-10 21:00:00,77.9,31.0,29.09,WSW,249,3.1,3.1,18,0.00,,,0.00,VWS V14.01,2013-04-11 01:00:00,
2013-04-10 21:05:00,78.1,31.2,29.09,NNW,334,3.1,3.6,18,0.00,,,0.00,VWS V14.01,2013-04-11 01:05:00,
2013-04-10 21:10:00,78.3,31.3,29.09,NNW,344,2.2,2.7,18,0.00,,,0.00,VWS V14.01,2013-04-11 01:10:00,
2013-04-10 21:15:00,78.4,31.5,29.09,WNW,289,0.0,0.0,18,0.00,,,0.00,VWS V14.01,2013-04-11 01:15:00,
2013-04-10 21:20:00,78.3,31.3,29.12,North,357,3.1,3.1,18,0.00,,,0.00,VWS V14.01,2013-04-11 01:20:00,
2013-04-10 21:25:00,78.4,31.5,29.12,NNW,328,3.6,3.6,18,0.00,,,0.00,VWS V14.01,2013-04-11 01:25:00,
2013-04-10 21:30:00,78.3,31.3,29.12,North,0,0.0,2.2,18,0.00,,,0.00,VWS V14.01,2013-04-11 01:30:00,
2013-04-10 21:35:00,78.3,31.3,29.12,NNW,328,0.0,0.0,18,0.00,,,0.00,VWS V14.01,2013-04-11 01:35:00,
2013-04-10 21:40:00,78.3,31.3,29.12,NNW,339,0.0,3.1,18,0.00,,,0.00,VWS V14.01,2013-04-11 01:40:00,
2013-04-10 21:45:00,78.3,31.3,29.12,North,353,0.0,0.0,18,0.00,,,0.00,VWS V14.01,2013-04-11 01:45:00,
2013-04-10 21:50:00,78.1,31.2,29.12,North,353,0.0,0.0,18,0.00,,,0.00,VWS V14.01,2013-04-11 01:50:00,
2013-04-10 21:55:00,77.9,31.0,29.12,North,353,0.0,0.0,18,0.00,,,0.00,VWS V14.01,2013-04-11 01:55:00,
2013-04-10 22:00:00,77.5,30.7,29.12,NNW,339,0.0,2.2,18,0.00,,,0.00,VWS V14.01,2013-04-11 02:00:00,
2013-04-10 22:05:00,77.4,30.6,29.12,NNW,341,0.0,0.0,18,0.00,,,0.00,VWS V14.01,2013-04-11 02:05:00,
2013-04-10 22:10:00,77.0,30.3,29.12,NNW,341,0.0,0.0,18,0.00,,,0.00,VWS V14.01,2013-04-11 02:10:00,
2013-04-10 22:15:00,76.8,30.1,29.12,NNW,341,0.0,0.0,18,0.00,,,0.00,VWS V14.01,2013-04-11 02:15:00,
2013-04-10 22:20:00,76.6,30.0,29.12,NNW,341,0.0,0.0,18,0.00,,,0.00,VWS V14.01,2013-04-11 02:20:00,
2013-04-10 22:25:00,76.3,29.7,29.12,NNW,340,0.0,0.0,18,0.00,,,0.00,VWS V14.01,2013-04-11 02:25:00,
2013-04-10 22:30:00,76.1,29.6,29.12,NNW,340,0.0,0.0,18,0.00,,,0.00,VWS V14.01,2013-04-11 02:30:00,
2013-04-10 22:35:00,75.7,29.3,29.12,NNW,340,0.0,0.0,18,0.00,,,0.00,VWS V14.01,2013-04-11 02:35:00,
2013-04-10 22:40:00,75.6,29.1,29.12,NNW,340,0.0,0.0,18,0.00,,,0.00,VWS V14.01,2013-04-11 02:40:00,
2013-04-10 22:45:00,75.2,28.8,29.12,NNW,340,0.0,0.0,18,0.00,,,0.00,VWS V14.01,2013-04-11 02:45:00,
2013-04-10 22:50:00,75.0,32.5,29.12,NNW,340,0.0,0.0,21,0.00,,,0.00,VWS V14.01,2013-04-11 02:50:00,
2013-04-10 22:55:00,74.8,32.3,29.12,NNW,340,0.0,0.0,21,0.00,,,0.00,VWS V14.01,2013-04-11 02:55:00,
2013-04-10 23:00:00,74.7,32.2,29.12,NNW,340,0.0,0.0,21,0.00,,,0.00,VWS V14.01,2013-04-11 03:00:00,
2013-04-10 23:05:00,74.7,32.2,29.15,NNW,340,0.0,0.0,21,0.00,,,0.00,VWS V14.01,2013-04-11 03:05:00,
2013-04-10 23:10:00,74.7,32.2,29.15,NNW,340,0.0,0.0,21,0.00,,,0.00,VWS V14.01,2013-04-11 03:10:00,
2013-04-10 23:15:00,74.5,32.0,29.15,NNW,339,0.0,0.0,21,0.00,,,0.00,VWS V14.01,2013-04-11 03:15:00,
2013-04-10 23:20:00,74.5,32.0,29.15,NNW,343,0.0,0.0,21,0.00,,,0.00,VWS V14.01,2013-04-11 03:20:00,
2013-04-10 23:25:00,74.5,32.0,29.15,NNW,344,0.0,0.0,21,0.00,,,0.00,VWS V14.01,2013-04-11 03:25:00,
2013-04-10 23:30:00,74.5,32.0,29.15,NNW,342,0.0,0.0,21,0.00,,,0.00,VWS V14.01,2013-04-11 03:30:00,
2013-04-10 23:35:00,74.3,31.9,29.15,North,350,0.0,3.6,21,0.00,,,0.00,VWS V14.01,2013-04-11 03:35:00,
2013-04-10 23:40:00,74.5,32.0,29.15,NW,318,0.0,0.0,21,0.00,,,0.00,VWS V14.01,2013-04-11 03:40:00,
2013-04-10 23:45:00,74.3,31.9,29.15,NNW,341,2.7,2.7,21,0.00,,,0.00,VWS V14.01,2013-04-11 03:45:00,
2013-04-10 23:50:00,74.3,31.9,29.15,NNW,340,0.0,0.0,21,0.00,,,0.00,VWS V14.01,2013-04-11 03:50:00,
2013-04-10 23:55:00,74.5,32.0,29.15,NNW,340,0.0,0.0,21,0.00,,,0.00,VWS V14.01,2013-04-11 03:55:00,